Wind_Speed
17 16 15 14 14 14 13 15 16 16 16 15 15 14 12 10 9 9 8 8 8 7 7 6 6 6 6 6 6 5 5 5 5 6 7 8 9 10 11 12 14 15 16 18 19 21 21 22 22 23 24 24 24 24 25 26 26 27 28 28 29 29 30
18 16 15 14 15 14 13 14 16 17 15 15 15 14 11 9 9 9 9 8 8 7 7 6 6 6 6 6 6 6 6 6 6 7 8 9 10 11 12 13 14 15 17 18 20 20 21 22 22 23 23 24 24 25 26 27 27 27 28 28 29 30 31
16 16 16 16 17 16 14 13 16 16 15 16 16 13 11 10 10 9 9 8 8 7 7 6 6 5 6 6 6 7 7 7 7 8 9 10 11 12 13 14 15 17 18 19 19 20 21 21 22 22 23 24 25 26 27 27 28 29 31 32 33 33 34
17 18 18 18 19 16 12 13 15 15 15 15 14 13 12 10 10 9 9 8 8 7 6 6 5 6 6 6 7 7 8 8 8 9 10 10 11 12 14 15 16 17 18 19 20 21 21 21 21 21 22 24 26 27 28 29 30 31 32 34 35 35 36
17 18 17 16 17 15 12 14 16 16 16 15 14 13 11 9 9 9 8 8 8 7 6 6 5 6 6 7 7 8 8 9 9 10 10 11 12 13 14 15 16 17 18 19 20 21 21 20 21 21 22 24 25 27 29 30 32 32 31 31 32 34 35
16 18 17 14 14 15 15 17 18 18 17 16 15 13 11 11 11 10 9 9 8 6 6 5 5 6 6 7 8 8 8 9 9 10 11 11 12 13 14 15 16 17 18 19 19 19 19 20 20 21 22 23 24 26 27 28 28 30 31 30 30 31 33
14 16 16 14 14 16 18 19 19 18 17 16 14 14 14 14 12 10 9 8 7 6 5 5 5 6 6 7 7 8 8 9 10 10 11 12 12 13 14 15 17 18 18 18 18 18 18 19 20 22 23 24 24 25 26 26 26 26 29 30 30 30 31
12 13 14 14 15 18 20 21 20 17 16 14 13 13 13 12 11 10 9 8 6 5 5 5 5 5 6 6 7 8 8 9 10 10 11 11 12 13 14 16 17 17 17 17 17 17 18 19 20 21 22 23 23 23 24 25 27 26 26 28 30 30 29
11 12 13 12 15 21 22 20 18 15 14 13 12 12 12 11 10 10 8 7 6 5 5 5 5 5 5 6 7 8 8 9 9 10 11 11 12 13 15 16 16 16 16 16 17 18 19 20 21 21 21 21 21 21 21 22 23 25 25 25 26 27 28
11 12 12 13 17 21 20 18 16 15 15 14 13 12 12 11 10 9 8 7 7 6 6 6 6 6 6 6 7 7 8 9 9 10 10 11 12 13 15 15 15 15 16 16 17 18 19 20 20 21 21 20 20 20 20 20 20 22 23 23 24 25 26
12 13 13 17 20 20 19 17 15 16 15 13 13 12 12 11 10 9 9 8 8 8 7 7 6 6 6 7 7 8 8 9 9 9 10 11 12 13 14 14 15 15 16 16 17 18 19 20 20 20 20 20 21 21 21 21 21 22 23 24 25 25 26
12 12 15 21 22 20 18 17 17 16 14 13 12 12 12 11 10 10 10 9 9 9 8 8 7 7 7 7 7 8 8 8 8 9 9 10 12 12 13 14 14 15 15 16 17 18 19 19 19 19 19 19 20 20 21 22 22 23 24 26 26 27 27
12 14 19 22 22 19 18 18 18 15 13 13 12 13 12 12 11 11 11 10 10 9 9 8 8 8 8 8 8 8 8 8 8 8 9 10 11 12 13 14 14 14 16 17 18 18 18 18 18 18 19 19 20 20 21 22 23 24 25 27 28 29 29
14 18 22 23 21 19 18 18 16 13 13 13 13 12 12 12 11 11 10 10 10 10 10 9 9 8 8 8 8 7 7 7 7 8 8 9 11 12 13 13 13 15 16 16 17 17 17 18 18 18 18 19 20 20 21 22 23 24 25 25 27 28 29
17 21 23 22 22 21 19 16 13 12 13 13 12 12 12 11 11 10 10 10 10 11 11 10 9 9 8 8 8 7 7 7 7 7 8 10 11 12 12 12 14 15 15 16 16 17 17 17 17 18 19 19 20 21 22 22 23 24 25 25 26 27 29
20 23 23 23 23 22 18 15 12 12 12 11 11 12 12 11 11 11 11 11 11 12 11 10 10 9 9 8 7 7 6 6 6 7 8 10 10 11 11 12 13 14 14 15 16 16 16 16 17 18 19 20 21 22 22 24 25 25 26 26 27 29 30
22 24 23 24 23 21 17 15 12 11 10 10 11 12 12 12 12 12 12 12 13 12 12 11 10 9 9 7 7 6 6 5 6 7 8 9 9 10 11 12 12 13 14 14 15 15 15 16 17 18 19 20 21 22 23 25 26 26 26 27 29 30 31
23 24 24 24 23 20 17 15 12 11 11 11 12 12 13 13 13 14 14 13 13 13 12 11 10 9 8 7 7 6 5 5 5 7 7 8 8 9 10 11 11 12 13 13 13 13 14 15 16 18 19 20 21 22 23 24 25 26 27 28 29 30 31
24 25 25 24 23 20 18 16 13 12 12 12 13 13 14 14 14 15 14 14 14 14 13 12 10 9 8 7 6 5 5 4 5 6 7 7 8 9 9 10 10 11 12 12 12 12 13 15 16 18 19 20 20 21 22 23 24 25 27 28 29 30 31
25 26 26 25 23 21 19 17 15 13 13 14 14 14 15 15 15 15 15 15 15 14 14 12 10 9 8 7 6 5 4 4 5 6 6 7 7 8 8 9 10 10 10 10 10 12 13 14 16 17 18 19 20 21 22 22 23 25 26 28 29 30 31
25 26 26 25 25 23 21 19 17 15 14 15 16 16 16 16 16 16 16 16 16 15 13 12 10 9 8 7 6 5 4 4 4 5 5 6 6 7 7 8 9 9 9 9 10 11 12 14 16 17 18 18 19 21 22 23 24 25 26 28 29 30 32
26 26 26 26 26 25 24 22 20 18 16 16 17 17 17 17 17 16 16 16 16 15 13 12 11 10 8 7 6 5 4 3 3 4 4 4 5 5 6 7 7 7 8 8 9 11 12 14 15 17 18 18 20 21 22 23 25 26 27 28 30 31 32
26 27 26 26 26 27 26 25 23 21 19 19 19 19 18 18 17 17 17 17 16 15 13 12 11 10 9 8 7 5 3 2 3 2 3 3 3 4 5 5 5 6 6 7 8 10 12 14 15 16 17 18 20 21 22 24 26 27 28 29 31 32 33
26 27 27 26 26 26 26 26 25 23 22 21 21 20 20 19 18 18 18 17 17 15 14 13 12 10 10 9 7 5 3 2 2 1 1 2 2 3 3 4 4 5 5 7 8 10 12 14 15 16 17 18 19 21 22 24 26 28 29 30 31 33 34
24 26 27 27 26 26 25 25 24 23 23 22 22 21 21 20 19 18 18 18 17 16 14 13 12 11 10 9 7 5 4 3 2 2 2 2 2 2 2 3 3 4 5 6 8 10 12 14 16 17 18 19 21 22 24 26 27 29 30 31 32 33 34
23 24 26 26 26 25 25 24 23 23 23 23 22 22 21 20 19 19 19 18 17 16 15 14 13 12 11 10 8 6 5 4 3 3 3 2 2 2 2 2 2 4 5 7 9 11 13 15 16 18 19 20 22 24 26 27 29 30 31 32 33 34 35
22 23 25 25 26 25 25 24 23 23 23 23 22 22 22 21 20 20 19 19 18 17 16 15 14 13 12 10 8 7 5 4 4 4 3 3 2 2 2 2 2 3 5 7 9 11 13 15 17 18 20 22 24 25 26 28 29 30 31 32 33 34 35
23 24 24 25 25 25 25 24 24 23 23 22 23 23 22 21 21 21 21 20 19 18 17 16 15 14 13 11 9 7 6 5 6 5 4 3 3 3 3 2 2 3 4 6 8 10 12 14 16 18 20 22 24 25 27 28 29 30 31 32 34 35 35
23 24 25 24 24 25 25 25 24 23 22 23 23 22 21 21 22 23 23 23 22 20 19 18 17 15 13 11 9 8 7 7 7 6 5 4 4 4 3 2 2 3 4 5 7 9 11 13 15 17 19 21 23 25 27 28 29 30 31 33 34 35 35
23 24 24 24 24 26 26 25 24 23 23 23 22 21 21 21 23 25 26 25 23 20 19 18 17 15 13 11 10 9 8 8 8 7 6 5 6 5 4 3 3 3 3 5 6 8 10 12 14 16 18 20 22 24 25 27 28 29 31 32 33 34 34
24 24 24 24 25 25 26 25 25 24 23 22 21 21 21 21 23 26 27 26 23 20 19 18 17 16 14 12 12 11 10 9 9 8 7 7 7 6 5 4 4 3 3 4 6 8 9 11 13 15 16 18 20 21 23 24 25 27 29 30 32 32 32
25 25 25 25 25 26 26 27 26 25 24 23 21 21 21 21 24 26 28 26 22 20 19 19 18 17 15 14 13 12 11 10 10 9 9 9 9 8 7 6 5 4 3 4 5 7 9 10 12 14 15 17 18 20 21 22 24 26 27 29 30 31 33
25 25 25 25 25 26 27 28 28 27 25 24 25 24 24 24 24 26 27 24 21 20 21 21 20 18 18 16 14 13 12 11 11 10 10 10 10 9 8 7 6 4 4 4 5 7 8 10 12 13 15 17 18 20 21 22 24 25 26 28 30 32 33
21 21 23 24 25 26 27 28 29 27 23 23 25 24 24 23 23 25 26 24 22 23 23 21 20 20 19 17 15 14 13 13 12 12 12 12 12 11 9 8 7 5 4 4 5 7 9 10 12 13 15 16 18 20 21 23 24 25 27 29 31 32 33
18 18 19 20 21 21 20 20 22 21 18 19 21 21 22 21 21 23 25 25 25 25 22 20 21 22 20 18 16 15 14 14 13 13 13 14 14 12 11 9 8 7 5 5 6 7 9 11 12 13 15 16 18 20 21 22 23 25 27 28 30 31 32
17 16 16 17 17 17 16 15 15 16 16 17 18 20 21 21 21 23 25 26 26 23 21 21 23 22 20 18 17 16 15 15 14 14 14 15 15 14 12 11 10 8 6 6 7 8 10 12 13 14 15 16 18 20 21 22 23 25 26 28 29 31 32
16 15 15 15 15 15 16 16 16 17 18 19 19 19 21 21 22 24 25 25 23 21 22 24 24 22 20 19 18 17 16 16 15 15 16 16 16 15 13 12 11 9 8 7 8 9 11 12 13 14 15 17 18 20 21 23 24 25 26 27 29 30 31
Wind_Direction
222 227 228 229 229 222 214 220 224 217 210 202 188 188 196 200 208 217 221 222 220 221 227 234 236 233 228 223 215 214 226 250 275 294 306 314 321 327 331 332 333 334 336 336 336 338 338 337 337 336 336 335 335 336 336 337 337 337 336 335 334 333 331
227 232 238 239 237 227 213 212 218 216 207 193 185 188 193 201 212 218 221 220 218 221 229 234 232 228 221 216 214 219 235 254 275 291 301 311 319 324 327 329 331 333 335 336 337 338 338 337 337 337 336 336 338 339 340 341 340 339 337 337 336 336 335
232 233 234 238 240 234 220 210 211 206 194 185 186 190 196 207 212 217 220 218 219 225 229 231 229 224 219 217 221 228 243 261 278 291 301 311 317 322 325 330 334 336 338 339 339 338 338 337 337 337 338 339 340 341 341 341 340 338 337 337 337 337 336
234 235 234 237 239 235 224 216 208 194 184 184 191 197 201 208 212 216 218 216 222 226 227 230 226 224 222 223 230 238 253 268 282 294 304 311 317 323 329 333 337 339 340 340 339 338 338 339 339 340 341 342 343 343 342 339 337 339 340 339 337 337 336
232 237 238 237 236 232 218 209 201 189 181 182 193 200 197 206 218 219 216 218 223 224 226 231 227 226 228 231 239 249 261 275 287 298 306 313 320 327 331 335 338 340 341 340 340 340 341 341 342 344 345 346 345 343 342 340 339 339 341 341 339 336 336
232 240 238 229 223 220 209 199 190 181 178 184 195 196 193 209 220 216 214 217 220 223 227 230 228 229 233 239 248 257 269 282 292 301 309 316 323 328 332 336 339 341 341 341 342 343 343 344 345 346 347 347 346 345 344 344 343 341 339 339 339 338 335
233 234 229 220 212 209 204 193 182 177 182 192 197 193 198 211 214 209 212 215 216 222 225 225 228 231 238 247 256 266 277 287 296 304 312 318 324 329 334 338 341 342 342 343 344 345 346 347 347 347 347 347 349 349 346 343 343 341 338 337 339 341 338
233 224 220 220 210 204 197 184 175 179 189 193 192 198 207 210 208 207 209 211 214 217 218 223 229 236 247 257 267 276 284 293 302 308 314 321 327 333 337 341 343 343 344 345 347 348 348 348 348 348 349 349 349 349 347 343 340 341 342 341 340 341 340
234 228 222 214 200 197 188 171 168 181 185 183 192 210 215 209 207 207 206 210 213 214 220 227 235 246 259 270 277 284 291 299 305 310 317 325 331 336 340 342 343 344 346 348 348 349 349 350 350 350 350 349 348 347 347 346 342 340 342 344 342 341 341
231 231 213 191 189 188 173 159 169 181 178 184 205 220 218 211 210 208 207 213 215 220 229 236 245 258 270 279 285 291 298 302 306 313 321 329 334 339 342 343 345 348 349 350 350 351 351 352 352 351 350 349 348 348 349 349 347 344 343 345 346 345 343
224 222 193 173 176 175 161 161 178 182 184 200 219 222 216 213 211 211 214 218 222 230 238 244 255 268 277 285 290 295 299 302 309 318 325 332 337 340 343 346 349 351 351 352 353 353 353 353 353 353 352 352 351 352 353 353 354 352 350 350 351 350 348
223 215 185 171 174 175 171 174 181 185 198 217 224 219 217 216 214 216 220 224 230 237 243 251 262 273 280 287 291 294 298 304 313 322 328 335 339 343 347 350 351 352 353 355 355 355 355 355 355 355 354 356 358 358 358 358 359 358 357 356 355 354 352
216 201 183 175 176 179 179 180 185 196 212 221 220 217 218 218 218 222 226 230 236 242 249 257 267 276 281 286 289 293 298 307 316 323 330 337 342 347 350 352 353 354 356 356 356 357 358 357 357 357 359 1 2 3 4 4 4 4 2 359 357 356 355
207 191 183 180 179 180 183 187 196 210 216 217 216 217 219 220 223 227 230 235 242 248 255 262 268 275 280 283 287 291 298 308 316 324 333 342 348 351 353 354 356 357 357 357 357 359 360 359 359 2 4 6 6 6 8 9 8 8 6 3 0 358 356
196 187 185 185 182 182 188 198 208 214 213 213 216 217 220 223 227 232 236 243 249 254 258 263 269 274 277 281 284 289 298 306 314 325 339 348 352 354 355 356 358 358 358 358 359 1 0 1 4 6 6 7 8 10 10 10 11 10 8 5 3 1 359
184 185 188 189 182 180 192 206 210 210 209 214 220 223 226 231 235 240 245 250 254 257 261 264 268 271 273 277 281 287 294 302 314 331 345 352 355 356 357 359 0 359 359 360 1 2 2 5 7 8 7 7 9 11 10 11 12 11 9 6 4 4 3
180 184 190 192 187 185 198 207 206 208 212 219 227 231 235 240 244 248 252 254 256 258 261 263 265 266 268 272 275 281 288 299 319 338 349 354 357 359 360 1 0 359 0 3 3 3 5 9 9 7 8 8 9 11 11 12 12 10 9 8 7 6 5
184 187 192 196 194 194 202 206 207 213 219 226 233 239 243 247 250 253 254 255 256 258 260 259 260 261 262 265 268 275 283 300 325 341 351 356 359 1 3 1 360 0 3 4 4 6 9 10 9 9 9 9 10 11 12 12 12 9 8 9 9 8 6
190 193 197 200 200 201 205 208 211 219 227 234 239 244 249 251 254 255 255 255 256 257 255 253 253 254 254 258 262 269 279 301 329 343 350 356 360 3 3 359 1 4 5 4 5 9 12 11 9 10 9 9 10 10 11 12 11 10 10 10 9 9 8
197 199 203 205 204 204 208 211 215 222 231 239 243 248 251 254 255 255 254 253 253 252 249 247 247 246 247 250 253 260 274 302 331 343 351 358 0 1 359 359 4 6 4 4 8 10 12 11 11 11 9 8 9 8 8 10 10 10 10 9 9 8 8
204 206 208 209 208 209 211 214 217 225 236 242 245 249 252 255 256 254 252 251 249 247 244 242 241 239 239 241 242 250 268 302 331 344 353 358 359 358 357 1 6 5 3 5 9 11 12 13 13 11 8 8 8 7 7 7 9 9 9 8 8 7 8
209 210 211 212 213 214 216 219 223 231 241 246 249 251 254 255 255 252 251 248 245 243 240 237 235 232 231 230 230 242 263 301 328 342 353 356 355 352 357 5 5 2 4 6 8 10 12 14 14 12 9 8 8 7 7 7 8 8 7 8 7 6 6
210 211 213 215 217 219 222 225 230 236 243 248 251 253 254 254 253 251 249 245 242 239 236 232 229 225 225 224 225 235 257 294 317 334 348 347 346 348 357 5 0 358 3 6 8 11 14 15 15 13 11 11 10 8 8 8 8 8 7 7 7 6 5
211 212 214 217 219 222 225 229 233 237 243 248 251 253 254 254 253 251 247 242 238 235 230 226 223 220 220 221 223 232 248 275 290 300 319 320 328 342 354 354 350 356 2 4 9 14 18 20 18 16 14 13 13 11 11 11 9 9 8 7 6 6 5
212 213 215 218 221 225 228 231 234 237 242 248 251 253 254 255 253 250 245 240 235 231 226 222 219 217 217 219 223 228 239 251 253 246 252 278 306 325 335 336 342 353 358 4 11 16 20 22 21 19 18 17 16 15 14 12 10 9 8 6 5 6 4
214 214 216 220 223 227 230 233 236 240 244 248 251 253 254 253 250 245 240 235 231 227 223 219 216 215 216 218 222 227 233 237 232 226 233 249 273 291 298 315 336 350 358 7 15 19 21 22 21 20 19 19 19 18 16 13 11 9 7 6 5 4 3
217 217 219 222 225 229 232 236 239 243 246 248 251 253 253 250 246 240 235 230 227 222 219 216 214 214 216 217 220 227 230 228 224 221 225 235 249 260 269 294 328 344 358 11 19 21 21 21 20 18 19 20 19 18 17 14 12 10 7 6 5 4 3
222 221 223 225 228 231 235 239 242 244 246 249 252 252 251 248 243 238 232 225 220 215 213 213 212 212 213 215 220 226 228 224 220 218 221 226 235 245 249 266 310 331 355 14 21 22 20 19 17 15 17 18 17 16 16 14 12 10 8 7 6 4 2
226 227 228 230 232 236 238 241 243 245 247 249 251 252 252 249 244 237 229 221 213 206 206 209 210 209 210 214 220 225 226 222 216 215 218 222 227 232 235 247 284 318 351 12 19 19 17 14 12 11 13 14 14 14 14 12 11 10 9 8 7 4 2
231 232 233 233 236 239 242 243 245 246 248 250 252 254 254 252 248 240 230 221 210 200 201 206 207 208 210 216 223 226 223 218 213 213 215 220 224 225 226 241 268 303 339 4 13 13 11 9 7 7 9 9 9 10 10 9 10 10 10 9 7 4 2
234 235 235 235 236 241 245 247 247 246 248 251 253 256 257 255 252 245 234 222 207 195 198 205 207 210 215 220 223 224 221 215 210 211 214 217 220 221 221 235 255 285 320 351 5 4 3 3 2 3 5 5 5 6 5 6 8 9 10 10 8 5 2
237 237 237 236 237 241 246 248 249 247 248 250 252 256 258 256 251 245 236 226 209 194 196 205 210 214 219 220 220 220 218 214 210 210 214 216 217 217 220 231 247 270 304 335 354 356 354 355 355 358 1 1 0 1 1 2 5 7 8 9 8 6 5
242 243 242 241 242 244 247 249 250 246 245 250 255 256 256 254 248 242 237 228 210 198 202 210 214 216 217 216 217 218 216 214 211 211 214 217 217 216 220 230 243 260 289 319 339 344 343 345 349 353 356 356 357 356 356 358 0 2 4 6 7 7 6
246 249 251 251 249 249 251 254 255 252 249 252 255 252 248 246 242 237 234 224 208 205 210 213 214 215 215 214 215 216 214 213 213 212 214 218 217 215 221 231 241 255 276 303 323 330 333 336 341 347 351 353 353 352 353 354 355 357 0 4 5 5 6
244 247 251 254 252 249 250 254 258 260 259 256 252 244 238 236 231 230 229 220 212 214 214 211 212 214 215 215 216 215 214 214 215 215 216 219 218 216 222 232 240 250 268 290 309 318 323 328 334 340 346 349 350 350 350 351 352 355 358 0 1 2 4
241 241 241 245 245 243 242 244 250 258 262 260 251 239 231 227 224 225 225 220 219 219 211 208 212 214 215 218 218 215 213 213 216 219 220 220 219 217 222 232 240 248 262 281 298 309 315 320 327 335 341 346 347 348 348 348 350 353 355 357 358 360 2
242 242 240 241 241 238 239 241 246 255 260 261 253 236 224 221 223 226 226 224 224 218 208 208 213 214 215 220 220 216 213 212 216 222 223 223 222 220 223 233 242 249 260 274 290 301 308 315 322 329 337 343 345 345 346 348 350 351 352 354 356 357 0
Height
3159 3159 3160 3160 3161 3164 3166 3166 3165 3166 3166 3167 3168 3170 3171 3172 3173 3173 3173 3174 3174 3174 3175 3175 3175 3175 3175 3175 3176 3176 3176 3176 3176 3175 3175 3174 3173 3173 3171 3170 3169 3167 3166 3164 3162 3160 3157 3155 3154 3152 3150 3148 3146 3144 3142 3140 3138 3137 3135 3133 3131 3129 3126
3158 3159 3159 3159 3160 3163 3165 3165 3164 3165 3165 3166 3167 3169 3170 3171 3172 3172 3173 3173 3173 3174 3174 3174 3174 3174 3174 3175 3175 3175 3175 3175 3175 3175 3174 3173 3172 3171 3170 3169 3168 3166 3165 3163 3161 3159 3157 3154 3152 3150 3148 3146 3144 3142 3140 3138 3136 3135 3133 3131 3128 3126 3124
3157 3158 3158 3158 3159 3160 3163 3164 3163 3163 3164 3166 3167 3168 3170 3170 3171 3172 3172 3172 3172 3173 3173 3173 3173 3173 3173 3174 3174 3174 3175 3174 3174 3174 3173 3172 3171 3170 3169 3167 3166 3165 3163 3161 3160 3158 3156 3154 3152 3149 3147 3144 3142 3140 3138 3137 3134 3132 3130 3127 3125 3123 3121
3156 3157 3157 3157 3158 3158 3160 3161 3161 3161 3163 3166 3167 3168 3169 3169 3170 3170 3171 3171 3172 3172 3172 3172 3172 3172 3173 3173 3173 3174 3174 3173 3173 3172 3172 3170 3169 3168 3167 3166 3165 3163 3162 3160 3158 3157 3155 3153 3151 3149 3146 3144 3141 3139 3137 3135 3132 3130 3128 3125 3123 3120 3118
3154 3155 3155 3156 3156 3157 3158 3159 3159 3160 3162 3164 3166 3167 3168 3168 3169 3169 3170 3170 3170 3171 3171 3171 3171 3172 3172 3172 3172 3173 3172 3172 3172 3171 3170 3169 3168 3167 3166 3165 3163 3162 3160 3159 3157 3155 3153 3151 3149 3147 3145 3143 3141 3138 3136 3133 3130 3128 3127 3126 3123 3120 3118
3153 3153 3154 3155 3155 3156 3157 3157 3158 3160 3162 3163 3165 3166 3167 3167 3168 3168 3169 3169 3169 3170 3170 3170 3171 3171 3171 3171 3171 3171 3171 3171 3170 3169 3168 3168 3167 3166 3165 3163 3162 3161 3159 3158 3156 3154 3152 3150 3148 3146 3144 3142 3140 3138 3135 3133 3131 3129 3126 3126 3124 3121 3118
3152 3152 3152 3153 3154 3154 3155 3156 3158 3159 3161 3163 3164 3165 3165 3166 3166 3167 3168 3168 3169 3169 3169 3170 3170 3170 3170 3170 3170 3170 3170 3169 3169 3168 3167 3166 3165 3165 3163 3162 3161 3159 3158 3156 3155 3153 3151 3150 3147 3145 3143 3141 3139 3137 3135 3133 3132 3130 3127 3124 3123 3121 3118
3149 3150 3150 3151 3152 3153 3153 3155 3157 3159 3161 3162 3163 3163 3164 3165 3166 3166 3167 3167 3168 3168 3169 3169 3169 3169 3169 3169 3169 3169 3168 3168 3167 3167 3166 3165 3164 3163 3162 3161 3159 3158 3156 3155 3153 3152 3150 3149 3147 3145 3142 3140 3139 3138 3136 3133 3131 3130 3128 3124 3122 3120 3118
3146 3147 3149 3149 3150 3152 3152 3154 3157 3159 3160 3161 3162 3163 3163 3164 3165 3165 3166 3166 3167 3167 3168 3168 3168 3168 3168 3168 3168 3167 3167 3166 3166 3165 3165 3164 3163 3162 3160 3159 3158 3156 3155 3153 3152 3151 3149 3147 3145 3144 3142 3141 3140 3138 3137 3135 3132 3129 3127 3125 3123 3120 3117
3145 3146 3147 3148 3149 3150 3152 3154 3157 3158 3159 3160 3161 3162 3162 3163 3163 3164 3165 3165 3166 3166 3167 3167 3167 3167 3167 3166 3166 3166 3165 3165 3165 3164 3163 3162 3161 3160 3159 3158 3156 3155 3154 3152 3151 3149 3148 3146 3144 3143 3142 3140 3139 3138 3136 3135 3133 3129 3127 3125 3123 3120 3117
3143 3144 3145 3146 3148 3150 3152 3155 3156 3157 3158 3159 3160 3161 3161 3162 3162 3163 3164 3165 3165 3165 3166 3166 3165 3165 3165 3165 3165 3164 3164 3164 3163 3163 3162 3161 3160 3159 3158 3156 3155 3153 3152 3151 3149 3148 3146 3145 3143 3142 3141 3139 3138 3136 3135 3133 3130 3128 3125 3123 3120 3118 3115
3141 3142 3143 3145 3148 3150 3151 3154 3155 3156 3157 3158 3159 3160 3160 3161 3161 3162 3163 3164 3164 3164 3164 3164 3164 3164 3164 3164 3163 3163 3163 3162 3162 3161 3160 3160 3159 3157 3156 3155 3153 3152 3151 3150 3148 3147 3145 3144 3143 3141 3140 3139 3137 3135 3133 3131 3128 3126 3123 3120 3118 3115 3113
3140 3142 3143 3145 3148 3150 3151 3152 3154 3155 3156 3157 3158 3158 3159 3160 3160 3161 3162 3163 3163 3163 3163 3163 3163 3163 3163 3162 3162 3162 3161 3161 3160 3160 3159 3158 3157 3156 3154 3153 3152 3151 3150 3148 3147 3146 3145 3143 3142 3141 3139 3138 3136 3134 3132 3129 3127 3124 3121 3118 3115 3113 3110
3139 3141 3143 3145 3147 3149 3150 3151 3153 3154 3155 3156 3156 3157 3158 3158 3159 3160 3161 3161 3162 3162 3162 3162 3162 3161 3161 3161 3161 3160 3160 3160 3159 3159 3158 3157 3155 3154 3153 3152 3151 3150 3148 3147 3146 3145 3144 3143 3141 3140 3138 3137 3135 3133 3131 3128 3126 3123 3121 3118 3115 3112 3109
3137 3140 3142 3145 3147 3148 3149 3150 3152 3153 3154 3155 3155 3156 3157 3157 3158 3159 3160 3160 3160 3160 3160 3160 3160 3160 3160 3160 3159 3159 3159 3159 3158 3158 3156 3155 3154 3153 3152 3151 3150 3149 3147 3146 3145 3144 3143 3142 3140 3139 3137 3135 3134 3132 3129 3127 3125 3122 3120 3118 3115 3112 3108
3136 3139 3142 3144 3146 3147 3148 3150 3151 3152 3153 3154 3154 3155 3156 3156 3157 3158 3158 3159 3159 3159 3159 3159 3159 3158 3158 3158 3158 3158 3158 3157 3157 3156 3155 3153 3152 3152 3151 3150 3149 3148 3147 3146 3144 3143 3142 3140 3139 3137 3136 3134 3132 3130 3128 3125 3123 3121 3119 3116 3113 3110 3107
3136 3138 3141 3143 3145 3147 3148 3149 3150 3151 3152 3153 3153 3154 3155 3155 3156 3156 3157 3157 3157 3157 3157 3157 3157 3157 3157 3157 3157 3157 3156 3156 3155 3154 3153 3152 3151 3151 3150 3149 3148 3147 3146 3145 3144 3143 3141 3140 3138 3136 3134 3132 3130 3128 3126 3123 3121 3119 3117 3115 3112 3109 3106
3135 3137 3140 3142 3144 3146 3147 3148 3149 3150 3151 3152 3152 3153 3153 3154 3154 3155 3155 3155 3155 3155 3156 3156 3156 3156 3156 3155 3155 3155 3155 3154 3153 3152 3152 3151 3150 3150 3149 3148 3147 3146 3145 3144 3143 3142 3140 3139 3137 3135 3133 3131 3129 3127 3125 3123 3121 3119 3117 3114 3111 3109 3106
3135 3137 3139 3141 3143 3145 3146 3147 3148 3149 3149 3150 3151 3151 3152 3152 3153 3153 3153 3154 3154 3154 3154 3154 3154 3154 3154 3154 3154 3154 3153 3153 3152 3151 3150 3150 3149 3149 3148 3148 3147 3146 3145 3144 3143 3141 3140 3138 3137 3134 3132 3131 3128 3126 3125 3123 3121 3119 3116 3114 3111 3108 3106
3134 3136 3138 3140 3142 3143 3144 3145 3146 3147 3148 3149 3149 3150 3150 3150 3151 3151 3151 3152 3152 3152 3153 3153 3152 3152 3152 3152 3152 3152 3152 3151 3150 3150 3149 3149 3148 3148 3147 3147 3146 3145 3144 3143 3142 3141 3140 3138 3136 3134 3132 3130 3128 3126 3124 3123 3121 3118 3116 3113 3110 3108 3105
3132 3134 3136 3138 3140 3141 3142 3143 3144 3145 3146 3147 3147 3148 3148 3149 3149 3149 3150 3150 3150 3151 3151 3150 3150 3150 3150 3150 3150 3150 3150 3150 3149 3149 3148 3148 3148 3147 3147 3146 3145 3145 3144 3143 3142 3140 3139 3137 3135 3133 3132 3130 3128 3126 3124 3122 3119 3117 3115 3112 3109 3107 3103
3131 3133 3135 3136 3138 3139 3140 3141 3142 3143 3144 3145 3145 3146 3146 3147 3147 3147 3148 3148 3148 3148 3148 3148 3148 3148 3148 3149 3149 3149 3149 3148 3148 3148 3147 3147 3147 3147 3146 3145 3145 3144 3143 3142 3141 3140 3138 3136 3134 3133 3131 3129 3127 3125 3123 3120 3118 3116 3113 3111 3108 3105 3102
3130 3131 3133 3134 3136 3137 3138 3139 3140 3141 3142 3143 3143 3143 3144 3144 3145 3145 3146 3146 3146 3146 3146 3146 3146 3147 3147 3147 3147 3147 3147 3147 3147 3147 3147 3147 3146 3146 3145 3145 3145 3144 3143 3142 3141 3139 3137 3136 3134 3132 3131 3129 3127 3124 3122 3119 3117 3114 3112 3109 3106 3103 3100
3128 3129 3131 3132 3133 3135 3136 3137 3138 3139 3140 3141 3141 3141 3142 3142 3143 3143 3143 3144 3144 3144 3144 3144 3145 3145 3145 3146 3146 3146 3146 3146 3146 3146 3146 3146 3146 3145 3145 3145 3144 3143 3142 3141 3140 3138 3137 3135 3133 3132 3130 3128 3126 3124 3121 3119 3116 3113 3110 3107 3104 3101 3098
3125 3127 3128 3130 3131 3133 3134 3135 3136 3137 3138 3139 3139 3139 3140 3140 3141 3141 3141 3141 3142 3142 3142 3142 3143 3143 3144 3144 3144 3144 3145 3145 3145 3145 3145 3145 3145 3144 3144 3144 3143 3142 3141 3140 3139 3137 3135 3134 3133 3131 3129 3127 3125 3122 3120 3117 3114 3111 3108 3105 3102 3100 3097
3123 3125 3126 3127 3129 3130 3132 3133 3134 3135 3136 3136 3137 3137 3137 3138 3138 3139 3139 3139 3139 3139 3140 3140 3141 3141 3142 3142 3142 3143 3143 3143 3144 3144 3144 3144 3143 3143 3143 3143 3142 3141 3140 3139 3137 3135 3134 3132 3131 3130 3128 3126 3124 3121 3118 3116 3113 3110 3107 3104 3101 3098 3095
3121 3122 3124 3125 3127 3128 3130 3131 3132 3133 3134 3134 3134 3135 3135 3135 3135 3136 3136 3136 3137 3137 3137 3138 3139 3139 3140 3140 3141 3141 3142 3142 3142 3143 3143 3142 3142 3142 3142 3142 3141 3140 3139 3137 3136 3134 3133 3131 3130 3129 3127 3124 3122 3120 3117 3115 3112 3109 3106 3103 3100 3097 3094
3119 3120 3122 3123 3124 3126 3127 3129 3130 3131 3131 3132 3132 3132 3132 3132 3133 3133 3133 3133 3134 3134 3135 3136 3136 3137 3138 3138 3139 3139 3140 3140 3141 3141 3141 3141 3141 3141 3141 3140 3140 3139 3138 3136 3135 3133 3132 3131 3129 3128 3126 3124 3122 3120 3117 3115 3112 3110 3106 3103 3099 3096 3093
3117 3118 3120 3121 3122 3124 3125 3126 3127 3128 3128 3129 3129 3129 3129 3130 3130 3130 3130 3130 3130 3131 3132 3134 3134 3135 3136 3136 3137 3138 3138 3139 3139 3139 3139 3139 3139 3140 3139 3139 3139 3138 3137 3135 3134 3133 3132 3130 3129 3128 3126 3124 3122 3119 3117 3115 3112 3109 3106 3102 3099 3096 3093
3114 3116 3117 3119 3120 3121 3122 3123 3124 3125 3126 3126 3126 3126 3127 3127 3127 3127 3127 3127 3127 3128 3130 3132 3133 3134 3134 3135 3136 3136 3136 3137 3137 3137 3138 3138 3138 3138 3138 3138 3137 3137 3136 3134 3133 3132 3131 3130 3129 3127 3125 3123 3121 3119 3117 3115 3112 3109 3106 3103 3100 3097 3094
3112 3113 3115 3116 3117 3118 3119 3120 3121 3122 3123 3123 3123 3124 3124 3124 3125 3125 3125 3125 3124 3125 3128 3131 3132 3133 3133 3133 3134 3134 3134 3135 3135 3136 3136 3136 3136 3136 3136 3136 3136 3136 3135 3133 3132 3131 3131 3130 3129 3127 3126 3124 3122 3120 3118 3116 3113 3110 3107 3104 3101 3099 3095
3109 3110 3111 3113 3114 3115 3116 3117 3118 3118 3119 3119 3120 3121 3121 3122 3122 3122 3123 3123 3123 3124 3126 3129 3130 3131 3131 3131 3132 3132 3132 3133 3133 3134 3134 3135 3135 3135 3135 3135 3135 3134 3134 3133 3132 3131 3130 3129 3128 3127 3125 3124 3122 3120 3118 3116 3113 3111 3108 3105 3102 3099 3095
3106 3107 3108 3110 3111 3112 3113 3113 3113 3114 3115 3116 3116 3117 3118 3118 3119 3119 3120 3121 3122 3122 3124 3126 3127 3128 3129 3129 3130 3130 3130 3131 3131 3132 3132 3133 3133 3134 3134 3134 3134 3133 3133 3132 3131 3130 3129 3129 3127 3126 3124 3123 3121 3119 3117 3115 3113 3110 3107 3104 3101 3098 3095
3103 3104 3105 3106 3108 3109 3109 3109 3109 3109 3111 3112 3113 3113 3114 3114 3115 3116 3117 3119 3120 3120 3122 3123 3124 3126 3127 3127 3127 3128 3128 3129 3129 3130 3131 3131 3132 3132 3132 3132 3132 3132 3131 3131 3130 3129 3129 3128 3126 3125 3123 3122 3120 3119 3116 3114 3112 3109 3106 3103 3101 3098 3095
3100 3101 3102 3103 3104 3105 3106 3106 3107 3107 3108 3109 3109 3110 3110 3111 3112 3113 3114 3116 3117 3118 3119 3121 3123 3124 3124 3125 3125 3126 3126 3127 3127 3128 3129 3129 3130 3130 3131 3131 3131 3131 3130 3129 3129 3128 3127 3126 3125 3124 3122 3121 3119 3117 3115 3113 3111 3108 3105 3103 3100 3097 3094
3097 3098 3100 3101 3102 3102 3103 3104 3104 3105 3106 3106 3106 3106 3107 3108 3109 3111 3112 3113 3114 3115 3117 3119 3121 3122 3122 3123 3124 3124 3124 3125 3125 3126 3127 3127 3128 3128 3129 3129 3129 3129 3129 3128 3127 3127 3126 3125 3124 3122 3121 3120 3118 3116 3114 3112 3110 3107 3105 3102 3099 3096 3094
3095 3096 3097 3098 3099 3100 3101 3101 3102 3102 3103 3103 3103 3103 3104 3105 3107 3109 3110 3112 3113 3114 3115 3117 3119 3120 3120 3121 3121 3122 3122 3123 3124 3124 3125 3126 3126 3127 3127 3128 3128 3127 3127 3126 3126 3125 3124 3124 3123 3121 3120 3118 3117 3115 3113 3111 3109 3106 3104 3101 3099 3096 3093